Weather in Krymno

Ukraine / Volyn Oblast     51°29′55″N   24°16′42″E
temp.,
°C
wind,
m/s
gust,
m/s
humid.,
%
clouds,
%
prec.,
mm/h
press.,
hPa
HPBL,
m
12 may, wed
wed1200:00+12se513826 0.0 1015267
03:00+11se4139034 0.0 1015281
06:00+11ese512875 0.0 1014240
09:00+16ese610750 0.0 1013473
12:00+20ese8106433 0.0 10131277
15:00+19se89542 0.0 10131623
18:00+17se79570 0.0 10121562
21:00+12ese713680 0.0 1012509
13 may, thu
thu1300:00+8se412760 0.0 1011370
03:00+6ese410881 0.0 1009193
06:00+5ese4109347 0.0 1008219
09:00+11ese686811 0.0 1006569
12:00+15se67575 0.0 10041351
15:00+15se6866100 0.0 10031379
18:00+12se698479 0.2 1002563
21:00+11se6139487 1.3 1001421
14 may, fri
fri1400:00+12sse599693 1.9 1001313
03:00+11sse41095100 1.9 1000412
06:00+11s61096100 0.3 1000554
09:00+11ssw61196100 2.0 1002589
12:00+12ssw5794100 1.6 1004590
15:00+13ssw6888100 1.8 1005561
18:00+13ssw5988100 0.1 1005558
21:00+12wsw498893 0.2 1006371
15 may, sat
sat1500:00+10wsw379285 0.0 1008248
03:00+8wsw4109192 0.0 1009331
06:00+7wsw3796100 0.0 1009167
09:00+12wsw4783100 0.0 1009697
12:00+12wnw587594 0.1 1010780
15:00+16nw576219 0.1 10091432
18:00+17wnw356352 0.1 10091385
21:00+12ene228366 0.1 100916
16 may, sun
sun1600:00+9ese33935 0.0 101043
03:00+9se33935 0.0 101144
06:00+9ese349316 0.0 101156
09:00+14ese467562 0.0 1011387
12:00+19ese5662100 0.0 10101147
15:00+20se5753100 0.1 10081857
18:00+15sse61288100 0.6 1008515
21:00+14e41090100 1.1 1008290